Regional Weather Roundup
Issued by NWS Wakefield, VA

Home | Current Version | Previous Version | Graphics & Text | Print | Product List | Glossary On
Versions: 1 2 3 4 5 6 7 8 9 10 11 12 13 14 15 16 17 18 19 20 21 22 23 24 25 26 27 28 29 30 31 32 33 34 35 36 37 38 39 40 41 42 43 44 45 46 47 48 49 50
940
ASUS41 KAKQ 270015
RWRAKQ

REGIONAL WEATHER ROUNDUP
NATIONAL WEATHER SERVICE WAKEFIELD VA
800 PM EDT TUE JUL 26 2016

Note: "fair" indicates few or no clouds below 12,000 feet with no
significant weather and/or obstructions to visibility. * = Denotes
station may not report precipitation (e.g., rain,snow,etc.),
thunder or fog.

VAZ042-051-052>054-056-270100-
NORTHERN VIRGINIA

CITY           SKY/WX    TMP DP  RH WIND       PRES   REMARKS
WASH NATIONAL  MOCLDY    91  64  40 N7        29.92R
DULLES         MOCLDY    88  68  51 CALM      29.93R
FORT BELVOIR   MOCLDY    85  71  62 CALM      29.91S
QUANTICO       LGT RAIN  84  77  79 NW8       29.92S
FREDERICKSBRG*   N/A     88  77  70 CALM      29.91S HX  99
STAFFORD*      LGT RAIN  83  74  72 N6        29.97S
WARRENTON      DRIZZLE   80  74  83 CALM      29.94F
CULPEPER*      MOCLDY    79  77  94 W5        29.96S
MANASSAS*      CLOUDY    90  70  51 N3        29.92S HX  95
LEESBURG*      FAIR      86  75  70 SW3       29.94S HX  95
WINCHESTER     FAIR      84  70  61 SW3       29.95F
FRONT ROYAL*   FAIR      81  72  74 S6        29.96S
LURAY*         FAIR      77  77 100 CALM      29.99S
$$

VAZ048-049-060>072-079>083-270100-
CENTRAL AND SOUTH CENTRAL VIRGINIA

CITY           SKY/WX    TMP DP  RH WIND       PRES   REMARKS
RICHMOND       TSTM      75  73  93 N6        29.95R FOG
CHESTERFIELD*  FAIR      81  64  57 NE8       29.96R THUNDER
PETERSBURG*    FAIR      83  74  76 CALM      29.95R
HANOVER        FAIR      83  71  67 SE9G17    29.94R THUNDER
TAPPAHANNOCK*  FAIR      87  73  61 SE5       29.94R
QUINTON*       MOCLDY    85  78  79 E3        29.92R HX  97
CHARLOTTSVILLE LGT RAIN  83  73  72 NW6       29.95R
GORDONSVILLE*  CLOUDY    83  74  75 NE15      29.94R
ORANGE*        TSTM      77  77 100 NE10G17   29.97R
LOUISA*        CLOUDY    88  82  84 CALM      29.92S HX 108
BUMPASS*       FAIR      85  80  84 CALM      29.91F HX  98
FARMVILLE*     TSTM      75  75  99 SE15G24   29.95R
CREWE*         FAIR      80  74  80 CALM      29.95R
FORT PICKETT*  FAIR      78  75  89 SW5G16    29.94R
CHASE CITY*    CLOUDY    84  76  75 W7        29.97R
CLARKSVILLE*   MOCLDY    84  73  70 E6        29.94R
SOUTH HILL*    CLOUDY    74  73  96 CALM      29.99F
LAWRENCEVILLE* FAIR      75  74  97 CALM      29.94S
EMPORIA*       FAIR      73  72  94 SE3       29.94S
$$

VAZ088>098-270100-
SOUTHEAST VIRGINIA

CITY           SKY/WX    TMP DP  RH WIND       PRES   REMARKS
NORFOLK        FAIR      84  72  67 W3        29.92F
VIRGINIA BEACH MOCLDY    87  72  60 CALM      29.91F
NORFOLK NAVAL  MOCLDY    83  73  72 SW3       29.93F
WEST POINT*    FAIR      85  77  76 SE7       29.93S HX  95
SALUDA*        FAIR      84  78  83 S8        29.93S HX  95
NEWPORT NEWS   FAIR      82  73  74 W8        29.92F
LANGLEY AFB    FAIR      82  74  76 W5        29.92F
FORT EUSTIS    FAIR      79  75  89 NE2       29.91F
WILLIAMSBURG*  FAIR      84  75  74 S3        29.93F
HR EXEC AP*    FAIR      79  73  83 CALM      29.95F
FRANKLIN*      FAIR      77  74  90 E3        29.94S
US460-WAKEFLD  FAIR      81  73  76 CALM      29.93F
$$

VAZ020-022-025-037-045-270100-
WEST CENTRAL AND SOUTHWEST VIRGINIA

CITY           SKY/WX    TMP DP  RH WIND       PRES   REMARKS
STAUNTON*      MOCLDY    73  71  93 CALM      30.03F
WAYNESBORO*    MOCLDY    75  72  89 CALM      30.03S
HOT SPRINGS VA NOT AVBL
LYNCHBURG      FAIR      84  72  67 SW5       29.96R
DANVILLE       FAIR      87  76  69 SW6       29.94R HX  97
SOUTH BOSTON*  FAIR      88  82  83 CALM      29.93S HX 107
MARTINSVILLE   FAIR      83  74  73 CALM      29.99S
ROANOKE        FAIR      90  70  51 CALM      29.99R HX  95
BLACKSBURG     FAIR      85  73  67 W3        30.08R
DUBLIN*        FAIR      87  72  60 CALM      30.06R
MARION*        FAIR      82  72  71 NW3       30.10S
HILLSVILLE*    CLOUDY    75  72  91 SE3       30.09R
RICHLANDS*     FAIR      82  72  72 NW3       30.10R
WISE*          FAIR      81  64  57 CALM      30.11S
ABINGDON*      FAIR      87  68  53 CALM      30.06R
$$

MDZ021>025-VAZ099-100-270100-
SOUTHERN MARYLAND AND THE DELMARVA PENINSULA

CITY           SKY/WX    TMP DP  RH WIND       PRES   REMARKS
PATUXENT RIVER MOCLDY    85  75  72 S5        29.91S
BAY BRIDGE APT PTCLDY    88  73  62 CALM      29.91S HX  96
LEONARDTOWN      N/A    N/A N/A N/A MISG        N/A
DOVER          PTCLDY    88  75  66 SW3       29.91R HX  98
GEORGETOWN     CLEAR     84  70  62 S5        29.93R
EASTON         MOCLDY    90  81  74 CALM      29.96R HX 108
CAMBRIDGE      PTCLDY    84  75  74 SW6       29.92R
SALISBURY      PTCLDY    81  75  82 S3        29.93R
OCEAN CITY     CLEAR     81  73  76 CALM      29.93R
WALLOPS ISLAND FAIR      82  75  79 S8        29.94R
ACCOMACK*      FAIR      82  75  78 CALM      29.94S
$$

NCZ012>017-030>032-270100-
NORTH CENTRAL AND EASTERN NORTH CAROLINA

CITY           SKY/WX    TMP DP  RH WIND       PRES   REMARKS
ROANOKE RAPIDS FAIR      77  73  88 SW9       29.93F
RALEIGH        MOCLDY    89  76  65 S7        29.93S THUNDER HX 100
ELIZABETH CITY CLOUDY    79  75  87 S13       29.95S
AHOSKIE*       CLOUDY    76  75  96 CALM      29.95S
EDENTON*       CLOUDY    80  76  87 SE5       29.95F
CURRITUCK*     CLOUDY    78  77  96 CALM      29.94S
KILL DEVIL HLS LGT RAIN  79  74  84 CALM      29.95R
MANTEO         LGT RAIN  82  78  87 W9        29.97S
CAPE HATTERAS  CLEAR     83  76  79 SW13G21   29.97R
TARBORO*       FAIR      86  77  75 N5        29.95R HX  97
GOLDSBORO      CLEAR     92  76  59 S6        29.93R HX 103
WASHINGTON     PTCLDY    90  78  67 S6        29.94R HX 103
GREENVILLE     CLOUDY    90  79  70 CALM      29.96R HX 105
NEW BERN       CLEAR     86  74  67 S8        29.97R
WILMINGTON     CLEAR     86  73  65 SW8       29.98R
$$

VAZ048-270100-
ELSEWHERE

CITY           SKY/WX    TMP DP  RH WIND       PRES   REMARKS
HARRISBURG PA  CLOUDY    85  77  77 CALM      29.89R HX  95
BALTIMORE      MOCLDY    86  67  52 CALM      29.91R
ANNAPOLIS      PTCLDY    86  74  67 W3        29.91R
ANDREWS AFB    FAIR      89  67  47 W2        29.92R
PHILADELPHIA   MOCLDY    88  69  53 SW13      29.91R
GREENSBORO     MOCLDY    88  71  57 CALM      29.97R
ROCKY MOUNT    CLOUDY    86  82  88 CALM      29.94R HX 104
$$

VAZ100-270100-
MARINE

STATION/POSITION TIME  TEMP    WIND        PRES    WAVE   SWELL
                       AIR SEA DIR/SP/G            HT/PER HT/PER
                 (UTC) (F)     (DEG/KT/KT) (MB)    (FT/S) (FT/S)
BRANDYWINE LGT   2312          200/ 10/ 11   N/A
CAPE MAY NJ      2300      74              1012.3
LEWES DE         2300      77              1012.6
OCEAN-CITY-INLET 2300      71              1013.6
WACHAPREAGUE VA  2300                      1013.6
THOMAS POINT MD  0000   88 85  260/  3/  3 1014.4R
GOOSES REEF MD   0000   89 87  180/  6/  6 1014.0R   0
COVE POINT MD    2300                      1013.3
SOLOMONS ISLAND  2300      86                N/A
BISHOPS HEAD MD  2300                      1013.1
PINEY POINT MD   2312          190/  9/ 10   N/A
POTOMAC MD       0000   86 86  200/ 12/ 14 1012.3R   1
CAMBRIDGE MD     2300      87              1011.9
LEWISETTA VA     2300      89              1012.7
RAPPAHANNOCK LGT 2300                      1014.1R
STINGRAY PT      0000   85 87  110/  8/ 10 1013.9R   1/ 2
YORK RVR RNG VA  2300                      1013.0
YORKTOWN VA      2300      83              1013.3
JAMESTOWN VA     0000   82 89  200/  8/ 10   N/A
DOMINION TERM VA 2300                      1014.1
KIPTOPEKE VA     2300      80                N/A
CHES BAY BRIDGE  2300      74              1013.2
CAPE HENRY VA    2312          210/  6/  9   N/A
WILLOUBY STN VA  2312          220/  7/  9   N/A
CAPE HENRY BUOY  2312      77                N/A     2/ 5
1ST LANDING BUOY 0000   82 80  220/  2/  4 1013.0F
CAPE CHARLES BUO 2326      78                N/A     1/ 8
OFFSHORE WE BUOY 2321      84                N/A     2/ 5
64NM E OF VA BCH 2350   82 81  240/  2/  2 1013.6R   3/ 6   3/ 6
DUCK PIER NC     2300      64              1013.2
44100 DUCK FRF   2305      78                N/A     2/ 6
44056 DUCK FRF   2311      73                N/A     1/ 8
OREGON INLET NC  2300      85              1013.6
HATTERAS NC      2300      83              1013.9
DIAMOND SHLS NC  2350   85 85  230/ 17/ 21 1014.5R   5/ 5
CAPE LOOKOUT NC  0000   84     230/ 12/ 15 1015.0R
$$




USA.gov is the U.S. government's official web portal to all federal, state and local government web resources and services.